• în Republica Moldova
  • Lista ţărilor
  • Pe 7 zile
  • Temperatura apei
  • Hartă satelitară
  • Meteo pe hartă
  • Widget-uri
  • user-avatar
    Intrare

    Meteo pe oră la Newcastle

    Astăzi, 24 Martie, Vineri

    Timp Temperatura Precipitaţii Vânt Presiune Umiditate
    00:00 +20°C° 0,1 mm 3 m/s 762 mmHg 96%
    01:00 +20°C° 0,1 mm 3 m/s 762 mmHg 95%
    02:00 +20°C° 0,3 mm 4 m/s 762 mmHg 95%
    03:00 +20°C° 0,3 mm 4 m/s 762 mmHg 96%
    04:00 +20°C° 0 mm 3 m/s 762 mmHg 96%
    05:00 +20°C° 0,1 mm 3 m/s 762 mmHg 96%
    06:00 +20°C° 0,1 mm 3 m/s 763 mmHg 96%
    07:00 +20°C° 0,1 mm 3 m/s 763 mmHg 95%
    08:00 +21°C° 0,1 mm 3 m/s 763 mmHg 89%
    09:00 +22°C° 0,1 mm 3 m/s 763 mmHg 83%
    10:00 +24°C° 0 mm 3 m/s 764 mmHg 77%
    11:00 +25°C° 0,1 mm 3 m/s 763 mmHg 76%
    12:00 +25°C° 0,1 mm 3 m/s 763 mmHg 74%
    13:00 +25°C° 0,1 mm 3 m/s 763 mmHg 72%
    14:00 +25°C° 0,1 mm 3 m/s 763 mmHg 71%
    15:00 +25°C° 0,1 mm 4 m/s 762 mmHg 69%
    16:00 +25°C° 0,1 mm 4 m/s 762 mmHg 67%
    17:00 +24°C° 0 mm 3 m/s 762 mmHg 75%
    18:00 +21°C° 0 mm 3 m/s 763 mmHg 84%
    19:00 +19°C° 0 mm 3 m/s 763 mmHg 92%
    20:00 +19°C° 0 mm 2 m/s 763 mmHg 92%
    21:00 +19°C° 0 mm 2 m/s 763 mmHg 92%
    22:00 +19°C° 0 mm 2 m/s 764 mmHg 92%
    23:00 +20°C° 0 mm 1 m/s 763 mmHg 92%

    Mâine, 25 Martie, Sâmbătă

    Timp Temperatura Precipitaţii Vânt Presiune Umiditate
    00:00 +21°C° 0 mm 1 m/s 763 mmHg 92%
    01:00 +21°C° 0 mm 1 m/s 763 mmHg 92%
    02:00 +20°C° 0 mm 1 m/s 763 mmHg 94%
    03:00 +19°C° 0 mm 1 m/s 762 mmHg 96%
    04:00 +18°C° 0 mm 1 m/s 762 mmHg 98%
    05:00 +19°C° 0 mm 1 m/s 762 mmHg 95%
    06:00 +20°C° 0 mm 1 m/s 762 mmHg 93%
    07:00 +21°C° 0 mm 1 m/s 762 mmHg 91%
    08:00 +23°C° 0 mm 1 m/s 762 mmHg 81%
    09:00 +24°C° 0 mm 2 m/s 762 mmHg 72%
    10:00 +26°C° 0 mm 2 m/s 762 mmHg 62%
    11:00 +27°C° 0 mm 2 m/s 761 mmHg 59%
    12:00 +28°C° 0 mm 2 m/s 761 mmHg 56%
    13:00 +30°C° 0 mm 2 m/s 760 mmHg 53%
    14:00 +29°C° 0 mm 3 m/s 760 mmHg 55%
    15:00 +29°C° 0 mm 3 m/s 760 mmHg 56%
    16:00 +29°C° 0 mm 4 m/s 759 mmHg 58%
    17:00 +27°C° 0,1 mm 4 m/s 759 mmHg 68%
    18:00 +23°C° 0,1 mm 4 m/s 760 mmHg 78%
    19:00 +21°C° 0,1 mm 4 m/s 760 mmHg 88%
    20:00 +21°C° 0,3 mm 4 m/s 760 mmHg 91%
    21:00 +21°C° 0,3 mm 4 m/s 760 mmHg 93%
    22:00 +20°C° 0,3 mm 3 m/s 760 mmHg 96%
    23:00 +20°C° 0,1 mm 3 m/s 760 mmHg 97%

    Poimâine, 26 Martie, Duminică

    Timp Temperatura Precipitaţii Vânt Presiune Umiditate
    00:00 +19°C° 0,1 mm 3 m/s 760 mmHg 97%
    01:00 +19°C° 0,1 mm 3 m/s 759 mmHg 98%
    02:00 +19°C° 0,1 mm 2 m/s 759 mmHg 97%
    03:00 +19°C° 0,1 mm 2 m/s 759 mmHg 97%
    04:00 +19°C° 0,1 mm 2 m/s 759 mmHg 97%
    05:00 +20°C° 0 mm 2 m/s 759 mmHg 95%
    06:00 +20°C° 0 mm 2 m/s 760 mmHg 93%
    07:00 +21°C° 0 mm 2 m/s 760 mmHg 92%
    08:00 +25°C° 0 mm 2 m/s 760 mmHg 82%
    09:00 +27°C° 0 mm 2 m/s 760 mmHg 71%
    10:00 +30°C° 0 mm 2 m/s 760 mmHg 61%
    11:00 +30°C° 0 mm 3 m/s 760 mmHg 58%
    12:00 +31°C° 0 mm 3 m/s 760 mmHg 55%
    13:00 +31°C° 0 mm 3 m/s 759 mmHg 52%
    14:00 +30°C° 0 mm 3 m/s 759 mmHg 57%
    15:00 +30°C° 0 mm 3 m/s 759 mmHg 62%
    16:00 +29°C° 0 mm 3 m/s 759 mmHg 67%
    17:00 +27°C° 0 mm 3 m/s 760 mmHg 77%
    18:00 +25°C° 0 mm 2 m/s 760 mmHg 87%
    19:00 +23°C° 0 mm 1 m/s 761 mmHg 96%
    20:00 +22°C° 0 mm 1 m/s 761 mmHg 97%
    21:00 +22°C° 0 mm 1 m/s 762 mmHg 98%
    22:00 +21°C° 0 mm 1 m/s 762 mmHg 99%
    23:00 +21°C° 0 mm 1 m/s 762 mmHg 99%

    27 Martie, Luni

    Timp Temperatura Precipitaţii Vânt Presiune Umiditate
    00:00 +21°C° 0 mm 1 m/s 762 mmHg 99%
    01:00 +21°C° 0 mm 1 m/s 761 mmHg 99%
    02:00 +21°C° 0 mm 1 m/s 761 mmHg 99%
    03:00 +21°C° 0 mm 1 m/s 761 mmHg 99%
    04:00 +21°C° 0 mm 1 m/s 761 mmHg 99%
    05:00 +21°C° 0 mm 1 m/s 761 mmHg 98%
    06:00 +22°C° 0 mm 1 m/s 761 mmHg 97%
    07:00 +23°C° 0 mm 1 m/s 761 mmHg 96%
    08:00 +25°C° 0 mm 1 m/s 761 mmHg 86%
    09:00 +27°C° 0 mm 1 m/s 761 mmHg 76%
    10:00 +28°C° 0 mm 2 m/s 761 mmHg 66%
    11:00 +30°C° 0 mm 2 m/s 760 mmHg 60%
    12:00 +31°C° 0 mm 2 m/s 760 mmHg 53%
    13:00 +34°C° 0 mm 3 m/s 759 mmHg 47%
    14:00 +33°C° 0 mm 3 m/s 758 mmHg 49%
    15:00 +33°C° 0 mm 4 m/s 758 mmHg 51%
    16:00 +33°C° 0 mm 4 m/s 757 mmHg 53%
    17:00 +30°C° 0 mm 4 m/s 758 mmHg 63%
    18:00 +28°C° 0 mm 5 m/s 758 mmHg 73%
    19:00 +26°C° 0 mm 5 m/s 758 mmHg 83%
    20:00 +25°C° 0 mm 5 m/s 758 mmHg 86%
    21:00 +25°C° 0 mm 4 m/s 758 mmHg 89%
    22:00 +23°C° 0 mm 4 m/s 759 mmHg 92%
    23:00 +23°C° 0 mm 4 m/s 758 mmHg 90%

    28 Martie, Marţi

    Timp Temperatura Precipitaţii Vânt Presiune Umiditate
    00:00 +23°C° 0 mm 4 m/s 758 mmHg 88%
    01:00 +23°C° 0 mm 4 m/s 757 mmHg 86%
    02:00 +24°C° 0 mm 3 m/s 757 mmHg 86%
    03:00 +24°C° 0 mm 3 m/s 757 mmHg 85%
    04:00 +23°C° 0 mm 2 m/s 757 mmHg 85%
    05:00 +24°C° 0 mm 3 m/s 758 mmHg 86%
    06:00 +24°C° 0 mm 3 m/s 759 mmHg 86%
    07:00 +24°C° 0 mm 3 m/s 759 mmHg 86%
    08:00 +26°C° 0 mm 3 m/s 759 mmHg 79%
    09:00 +28°C° 0 mm 3 m/s 759 mmHg 72%
    10:00 +30°C° 0 mm 3 m/s 759 mmHg 65%
    11:00 +31°C° 0 mm 3 m/s 759 mmHg 61%
    12:00 +33°C° 0 mm 3 m/s 759 mmHg 57%
    13:00 +34°C° 0 mm 3 m/s 758 mmHg 53%
    14:00 +33°C° 0,2 mm 3 m/s 758 mmHg 60%
    15:00 +32°C° 0,2 mm 4 m/s 758 mmHg 67%
    16:00 +29°C° 0,2 mm 4 m/s 758 mmHg 74%
    17:00 +27°C° 0,4 mm 3 m/s 758 mmHg 82%
    18:00 +26°C° 0,4 mm 3 m/s 759 mmHg 90%
    19:00 +24°C° 0,4 mm 2 m/s 759 mmHg 97%
    20:00 +24°C° 0,4 mm 2 m/s 760 mmHg 98%
    21:00 +24°C° 0,4 mm 2 m/s 760 mmHg 98%
    22:00 +24°C° 0,4 mm 2 m/s 761 mmHg 98%
    23:00 +24°C° 0,1 mm 2 m/s 760 mmHg 98%

    29 Martie, Miercuri

    Timp Temperatura Precipitaţii Vânt Presiune Umiditate
    00:00 +24°C° 0,1 mm 2 m/s 760 mmHg 98%
    01:00 +24°C° 0,1 mm 2 m/s 760 mmHg 98%
    02:00 +24°C° 0 mm 2 m/s 760 mmHg 98%
    03:00 +24°C° 0 mm 2 m/s 760 mmHg 98%
    04:00 +24°C° 0 mm 2 m/s 760 mmHg 98%
    05:00 +24°C° 0 mm 1 m/s 760 mmHg 98%
    06:00 +24°C° 0 mm 1 m/s 760 mmHg 97%
    07:00 +25°C° 0 mm 1 m/s 761 mmHg 97%
    08:00 +26°C° 0 mm 1 m/s 761 mmHg 91%
    09:00 +27°C° 0 mm 1 m/s 761 mmHg 85%
    10:00 +28°C° 0 mm 1 m/s 761 mmHg 80%
    11:00 +29°C° 0 mm 1 m/s 760 mmHg 74%
    12:00 +30°C° 0 mm 2 m/s 759 mmHg 68%
    13:00 +31°C° 0 mm 2 m/s 759 mmHg 63%
    14:00 +31°C° 0 mm 3 m/s 758 mmHg 63%
    15:00 +33°C° 0 mm 4 m/s 758 mmHg 62%
    16:00 +33°C° 0 mm 4 m/s 758 mmHg 62%
    17:00 +30°C° 0,3 mm 4 m/s 758 mmHg 72%
    18:00 +28°C° 0,3 mm 5 m/s 758 mmHg 82%
    19:00 +26°C° 0,3 mm 5 m/s 758 mmHg 92%
    20:00 +25°C° 0,1 mm 5 m/s 758 mmHg 92%
    21:00 +25°C° 0,1 mm 5 m/s 758 mmHg 93%
    22:00 +25°C° 0,1 mm 5 m/s 758 mmHg 94%
    23:00 +23°C° 0,6 mm 5 m/s 758 mmHg 94%
    Arată mai mult